Regional Weather Roundup
Issued by NWS

Home | Current Version | Previous Version | Graphics & Text | Print | Product List | Glossary On
Versions: 1 2 3 4 5 6 7 8 9 10 11 12 13 14 15 16 17 18 19 20 21 22 23 24 25 26 27 28 29 30 31 32 33 34 35 36 37 38 39 40 41 42 43 44 45 46 47 48 49 50
636
ASUS43 KIND 251100
RWRIN

WEATHER ROUNDUP FOR INDIANA
NATIONAL WEATHER SERVICE INDIANAPOLIS IN
700 AM EDT SUN JUN 25 2017

NOTE: "FAIR" INDICATES FEW OR NO CLOUDS BELOW 12,000 FEET WITH NO
SIGNIFICANT WEATHER AND/OR OBSTRUCTIONS TO VISIBILITY.

* - STATION DOES NOT REPORT WEATHER SUCH AS PRECIPITATION OR FOG.

+ - STATION NOT QUALITY CONTROLLED BY THE NATIONAL WEATHER SERVICE.
    USE DATA WITH CAUTION...ESPECIALLY DEWPOINT AND RELATIVE
    HUMIDITY OBSERVATIONS.

INZ001>003-010>013-019-020-251200-
NORTHWEST INDIANA

CITY           SKY/WX    TMP DP  RH WIND       PRES   REMARKS
GARY /AIRPORT/ CLEAR     57  45  62 W9        30.10R
KNOX *+        CLEAR     54  39  58 W7        30.08R
MICHIGAN CITY+ CLEAR     57  45  62 W7        30.08R
MONTICELLO +   CLEAR     56  48  74 W6        30.10R

$$

LMZ046-743>745-251200-
SOUTHERN LAKE MICHIGAN

STATION/POSITION TIME  TEMP    WIND        PRES    WAVE
                       AIR SEA DIR/SP/G            HT
                 (UTC) (F)     (DEG/KT/KT) (MB)    (FT)
BURNS HARBOR     1040   61     300/ 14/ 19 1019.0R
MICHIGAN CITY    1030   60     270/ 17/ 20   N/A
5NW MICH CITY    1050   61 67  290/ 14/ 19   N/A     5

$$

INZ004-005-014>016-021>024-251200-
NORTH CENTRAL INDIANA

CITY           SKY/WX    TMP DP  RH WIND       PRES   REMARKS
GOSHEN         CLEAR     56  46  69 W9        30.05R
SOUTH BEND     CLEAR     56  47  71 W10       30.06R

$$

INZ006>009-017-018-025>027-251200-
NORTHEAST INDIANA

CITY           SKY/WX    TMP DP  RH WIND       PRES   REMARKS
FORT WAYNE     PTCLDY    57  48  72 SW9       30.06R
KENDALLVILLE + CLEAR     57  47  71 W12       30.05R

$$

INZ028-029-035-036-043>045-051>053-251200-
WEST CENTRAL INDIANA

CITY           SKY/WX    TMP DP  RH WIND       PRES   REMARKS
LAFAYETTE      CLEAR     53  50  89 CALM      30.12R
TERRE HAUTE    PTCLDY    57  49  74 SW7       30.14R

$$

INZ030>032-037>040-046>048-054>057-064-065-251200-
CENTRAL INDIANA

CITY           SKY/WX    TMP DP  RH WIND       PRES   REMARKS
COLUMBUS       PTCLDY    52  50  93 S6        30.15
GREENWOOD *+   PTCLDY    58  47  65 SW6       30.13R
INDIANAPOLIS   PTCLDY    56  48  74 SW9       30.12R
-EAGLE CREEK   CLEAR     59  47  64 SW7       30.11R
KOKOMO +       PTCLDY    58  48  69 W10       30.10R
MT COMFORT *+  CLEAR     57  48  72 SW8       30.11S
SHELBYVILLE    PTCLDY    57  49  74 S8        30.12R

$$

INZ033-034-041-042-049-050-058-059-251200-
EAST CENTRAL INDIANA

CITY           SKY/WX    TMP DP  RH WIND       PRES   REMARKS
MUNCIE         CLEAR     59  47  64 SW7       30.09S
RICHMOND +     PTCLDY    50  48  93 SW5       30.13R

$$

INZ060-061-067>069-081>083-085>088-251200-
SOUTHWEST INDIANA

CITY           SKY/WX    TMP DP  RH WIND       PRES   REMARKS
EVANSVILLE     CLEAR     54  52  93 MISG      30.18R
HUNTINGBURG *+ CLEAR     55  53  93 S3        30.18R

$$

INZ062-063-066-070>080-084-089>092-251200-
SOUTH CENTRAL AND SOUTHEAST INDIANA

CITY           SKY/WX    TMP DP  RH WIND       PRES   REMARKS
BLOOMINGTON    CLEAR     56  48  74 SW7       30.15R
MADISON *+     CLEAR     55  54  94 CALM      30.18R
SEYMOUR +      CLEAR     55  54  94 CALM      30.15R

$$





USA.gov is the U.S. government's official web portal to all federal, state and local government web resources and services.